Weather History for Minamitorishima, Japan

Change the Weather History Date:

Monday, December 23, 2013

  Actual Average Record
Temperature  
Mean Temperature 72 °F -  
Max Temperature 73 °F - - ()
Min Temperature 69 °F - - ()
Cooling Degree Days 6    
Growing Degree Days 22 (Base 50)    
Moisture  
Dew Point 62 °F    
Average Humidity 64    
Maximum Humidity 80    
Minimum Humidity 50    
Precipitation  
Precipitation 0.04 in - - ()
Sea Level Pressure  
Sea Level Pressure 30.03 in    
Wind  
Wind Speed 11 mph ()    
Max Wind Speed 20 mph    
Max Gust Speed -    
T = Trace of Precipitation, MM = Missing Value Source: Averaged Metar Reports

Daily Weather History Graph

Daily Weather History Graph

Search for Another Location

Airport:

Trip Planner

Search our weather history database for the weather conditions in past years. The results will help you decide how hot, cold, wet, or windy it might be!

Date:

Astronomy

Dec. 23, 2013 Rise Set
Actual Time 6:24 AM ChST 5:02 PM ChST
Civil Twilight 5:59 AM ChST 5:26 PM ChST
Nautical Twilight 5:30 AM ChST 5:55 PM ChST
Astronomical Twilight 5:02 AM ChST 6:23 PM ChST
Moon 10:01 PM ChST (12/23) 9:58 AM ChST (12/23)
Length of Visible Light 11h 27m
Length of Day
10h 38m
Waning Gibbous, 73% of the Moon is Illuminated
Dec 23
Waning Gibbous
Dec 25
Last Quarter
Jan 1
New
Jan 8
First Quarter
Jan 16
Full

Hourly Weather History & Observations

Time (ChST) Temp. Dew Point Humidity Pressure Visibility Wind Dir Wind Speed Gust Speed Precip Events Conditions
12:00 AM 72 °F 66 °F 77% 29.96 in - NW 11.5 mph - -  
1:00 AM 73 °F 64 °F 66% 29.97 in - WNW 12.7 mph - -  
2:00 AM 72 °F 67 °F 80% 29.97 in - NNW 19.6 mph - -  
3:00 AM 72 °F 65 °F 72% 29.98 in - NW 13.8 mph - -  
4:00 AM 72 °F 64 °F 69% 29.98 in - NW 10.4 mph - -  
5:00 AM 72 °F 65 °F 71% 29.99 in - NW 10.4 mph - -  
6:00 AM 72 °F 64 °F 68% 30.01 in - WNW 9.2 mph - -  
7:00 AM 74 °F 64 °F 63% 30.03 in - West 8.1 mph - -  
8:00 AM 74 °F 64 °F 62% 30.04 in - West 9.2 mph - -  
9:00 AM 73 °F 66 °F 73% 30.06 in - NNW 12.7 mph - -  
10:00 AM 71 °F 65 °F 76% 30.06 in - North 13.8 mph - -  
11:00 AM 71 °F 64 °F 71% 30.06 in - NNW 12.7 mph - -  
12:00 PM 72 °F 64 °F 71% 30.03 in - NNW 16.1 mph - -  
1:00 PM 71 °F 61 °F 63% 30.01 in - NNW 16.1 mph - -  
2:00 PM 72 °F 61 °F 59% 30.01 in - NNW 15.0 mph - -  
3:00 PM 71 °F 60 °F 61% 30.01 in - North 15.0 mph - -  
4:00 PM 71 °F 59 °F 57% 30.01 in - North 15.0 mph - -  
5:00 PM 71 °F 57 °F 53% 30.03 in - North 15.0 mph - -  
6:00 PM 70 °F 58 °F 58% 30.04 in - North 11.5 mph - -  
7:00 PM 70 °F 58 °F 56% 30.06 in - North 11.5 mph - -  
8:00 PM 70 °F 56 °F 51% 30.07 in - North 12.7 mph - -  
9:00 PM 70 °F 56 °F 51% 30.08 in - North 11.5 mph - -  
10:00 PM 70 °F 56 °F 52% 30.09 in - North 10.4 mph - -  
11:00 PM 69 °F 54 °F 50% 30.08 in - North 11.5 mph - -